sat.trackr.live / text

‹ back to catalog

STARLINK-3549

NORAD 51891 · 2022-022AR

PAYLOAD ACTIVE UNKNOWN

§ Identity

Operator
Country
US
Launch date
2022-03-03
Launch site
AFETR
Launch vehicle
Mass (kg)
RCS (m²)

Purposes: comms

External: N2YO · Heavens-Above · Gunter

§ Orbital elements

Epoch: 2026-09-20T01:27:50.679072Z

Period
93.85 min
Inclination
53.1586°
Eccentricity
0.0001522
Mean motion
15.34386631 rev/d
Perigee alt
461.7 km
Apogee alt
463.8 km
Semi-major
6,840.9 km
B*
9.5087e-6
RAAN
189.4245°
Arg perigee
99.3795°
Mean anomaly
260.7380°
Rev number
25,287

§ Raw data

STARLINK-35491 51891U 22022AR  26263.06100323 -.00000055  00000+0  95087-5 0  99902 51891  53.1586 189.4245 0001522  99.3795 260.7380 15.34386631252879

JSON: /api/v1/satellites/51891 · /tle

For live sub-satellite position, see the globe view (requires WebGL).

§ Visibility from observer

Set your observer location to see the next 7 days of passes ≥ 10°. The values pass through the URL so the page stays shareable.

No JS? Fill the form by hand. The geolocation button needs JavaScript.